Regional Weather Roundup
Issued by NWS

Home | Current Version | Previous Version | Text Only | Print | Product List | Glossary Off
Versions: 1 2 3 4 5 6 7 8 9 10 11 12 13 14 15 16 17 18 19 20 21 22 23 24 25 26 27 28 29 30 31 32 33 34 35 36 37 38 39 40 41 42 43 44 45 46 47 48 49 50

000
ASUS43 KDTX 251210
RWRMI
MICHIGAN HOURLY REGIONAL WEATHER ROUNDUP
NATIONAL WEATHER SERVICE DETROIT/PONTIAC MI
800 AM EDT MON SEP 25 2017

NOTE: "FAIR" INDICATES FEW OR NO CLOUDS BELOW 12,000 FEET WITH NO
SIGNIFICANT WEATHER AND/OR OBSTRUCTION TO VISIBILITY.

MIZ047>049-052>055-059>063-066>070-074>076-081>083-251300-
SOUTHEAST LOWER MICHIGAN

CITY           SKY/WX    TMP DP  RH WIND       PRES   REMARKS
ADRIAN         PTCLDY    63  62  97 CALM      30.08S FOG
6HR MIN TEMP:  61; 6HR MAX TEMP:  65;

ALMA           PTCLDY    58  56  95 MISG      30.07S
ANN ARBOR      CLEAR     60  60 100 CALM      30.07R
BAD AXE        PTCLDY    63  61  93 CALM      30.09R FOG
CARO           CLEAR     60  58  96 CALM      30.07S FOG
DETROIT CITY   PTCLDY    67  65  93 CALM      30.07R FOG
6HR MIN TEMP:  67; 6HR MAX TEMP:  70;

DETROIT        MOCLDY    68  65  90 NE3       30.07S FOG
6HR MIN TEMP:  68; 6HR MAX TEMP:  72;

FLINT          CLEAR     64  62  93 CALM      30.07S FOG
6HR MIN TEMP:  61; 6HR MAX TEMP:  68;

GROSSE ILE     CLEAR     66  65  94 CALM      30.06R FOG
6HR MIN TEMP:  65; 6HR MAX TEMP:  68;

HILLSDALE      FOG       61  59  94 CALM      30.08R VSB 1/4
HOWELL         CLEAR     64  62  92 CALM      30.08R FOG
6HR MIN TEMP:  63; 6HR MAX TEMP:  68;


CITY           SKY/WX    TMP DP  RH WIND       PRES   REMARKS
JACKSON        FOG       64  62  93 CALM      30.07S VSB 1
6HR MIN TEMP:  62; 6HR MAX TEMP:  68;

LAMBERTVILLE   FOG       65  62  92 CALM      30.06S VSB<1/4
6HR MIN TEMP:  63; 6HR MAX TEMP:  69;

LANSING        CLEAR     65  62  90 CALM      30.07R FOG
6HR MIN TEMP:  65; 6HR MAX TEMP:  72;

LAPEER         FAIR      60  59  96 CALM      30.08R FOG
6HR MIN TEMP:  59; 6HR MAX TEMP:  61;

MASON            N/A     62  61  94 CALM      30.08R FOG
MONROE         FOG       64  62  93 CALM      30.06S VSB 1/4
6HR MIN TEMP:  63; 6HR MAX TEMP:  71;

MT. CLEMENS    MOCLDY    64  64 100 N3        30.06R
6HR MIN TEMP:  63; 6HR MAX TEMP:  65;

PONTIAC        PTCLDY    65  64  97 CALM      30.07S FOG
6HR MIN TEMP:  64; 6HR MAX TEMP:  66;

PORT HOPE        N/A     64  62  93 CALM      30.07
6HR MIN TEMP:  63; 6HR MAX TEMP:  74;

PORT HURON     FOG       61  61 100 CALM      30.08S VSB 1/4
TRI CITIES     CLOUDY    64  63  96 CALM      30.07S FOG
6HR MIN TEMP:  63; 6HR MAX TEMP:  72;

MIDLAND        FAIR      59  59 100 CALM      30.06S FOG
6HR MIN TEMP:  59; 6HR MAX TEMP:  66;

TROY           CLEAR     68  64  89 CALM      30.09S
SAGINAW HB     CLEAR     61  59  94 CALM      30.06S FOG
$$
MIZ043>046-050>051-056>058-064>065-071>073-077>080-251300-
SOUTHWEST LOWER MICHIGAN

CITY           SKY/WX    TMP DP  RH WIND       PRES   REMARKS
BATTLE CREEK   CLEAR     64  63  96 CALM      30.08R FOG
6HR MIN TEMP:  63; 6HR MAX TEMP:  71;

BENTON HARBOR  CLEAR     62  57  83 CALM      30.04R
6HR MIN TEMP:  61; 6HR MAX TEMP:  67;

BIG RAPIDS     CLEAR     56  54  94 CALM      30.07R FOG
6HR MIN TEMP:  56; 6HR MAX TEMP:  62;

COLDWATER        N/A     62  62 100 CALM      30.08R FOG
6HR MIN TEMP:  62; 6HR MAX TEMP:  69;

FREMONT        FAIR      61  61 100 CALM      30.05R
6HR MIN TEMP:  60; 6HR MAX TEMP:  67;

HOLLAND        CLEAR     63  60  90 CALM      30.05R
6HR MIN TEMP:  62; 6HR MAX TEMP:  68;

GRAND RAPIDS   PTCLDY    64  63  96 CALM      30.06R
6HR MIN TEMP:  64; 6HR MAX TEMP:  69;

IONIA          FAIR      62  61  99 S3        30.06R FOG
6HR MIN TEMP:  60; 6HR MAX TEMP:  68;

KALAMAZOO      CLEAR     63  60  90 CALM      30.08R FOG
6HR MIN TEMP:  63; 6HR MAX TEMP:  70;

LUDINGTON      CLEAR     60  57  90 CALM      30.03R
6HR MIN TEMP:  58; 6HR MAX TEMP:  64;

MARSHALL       FOG       61  60  98 CALM      30.07R VSB<1/4
6HR MIN TEMP:  60; 6HR MAX TEMP:  68;

MOUNT PLEASANT PTCLDY    61  60  96 CALM      30.06R
6HR MIN TEMP:  60; 6HR MAX TEMP:  67;

MUSKEGON       PTCLDY    64  60  87 SE3       30.04R
6HR MIN TEMP:  63; 6HR MAX TEMP:  68;

SOUTH HAVEN    CLEAR     62  59  90 CALM      30.05R
$$
MIZ016>042-251300-
NORTHERN LOWER MICHIGAN

CITY           SKY/WX    TMP DP  RH WIND       PRES   REMARKS
ALPENA         CLEAR     66  62  87 SW3       30.06R
6HR MIN TEMP:  59; 6HR MAX TEMP:  66;

BEAVER ISLAND  CLEAR     72  61  68 S6        30.01R
BELLAIRE       CLEAR     57  56  95 CALM      30.04R FOG
6HR MIN TEMP:  56; 6HR MAX TEMP:  63;

CADILLAC       CLEAR     57  53  85 CALM      30.07S FOG
CHARLEVOIX     CLEAR     67  62  82 SE6       30.05R
6HR MIN TEMP:  66; 6HR MAX TEMP:  70;

FRANKFORT      CLEAR     63  60  92 CALM      30.02S
GAYLORD        CLEAR     63  58  83 S5        30.08R
6HR MIN TEMP:  60; 6HR MAX TEMP:  66;

GRAYLING       CLEAR     52  49  91 CALM      30.08S
6HR MIN TEMP:  52; 6HR MAX TEMP:  60;

HARBOR SPRINGS CLEAR     69  61  77 CALM      30.03R
HOUGHTON LAKE  CLEAR     59  57  93 SW3       30.09R
6HR MIN TEMP:  56; 6HR MAX TEMP:  69;

MANISTEE       CLEAR     57  57 100 E6        30.03R FOG
OSCODA         CLEAR     62  62  98 SW3       30.06R FOG
6HR MIN TEMP:  61; 6HR MAX TEMP:  66;

PELLSTON       CLEAR     56  56 100 CALM      30.03R FOG
6HR MIN TEMP:  54; 6HR MAX TEMP:  64;

ROGERS CITY    CLEAR     68  60  76 SW7       30.05R
TRAVERSE CITY  PTCLDY    68  60  75 VRB3      30.01S
6HR MIN TEMP:  66; 6HR MAX TEMP:  72;

$$
MIZ007>008-015-251300-
EASTERN UPPER MICHIGAN

CITY           SKY/WX    TMP DP  RH WIND       PRES   REMARKS
KINROSS        CLEAR     69  62  78 S3        30.02R
6HR MIN TEMP:  66; 6HR MAX TEMP:  70;

MACKINAC ISLAN CLEAR     73  60  64 S10G17    30.01S
6HR MIN TEMP:  69; 6HR MAX TEMP:  74;

NEWBERRY       CLEAR     66  65  97 S9        29.99S
6HR MIN TEMP:  66; 6HR MAX TEMP:  68;

S. S. MARIE    CLEAR     65  62  90 E3        30.01R FOG
6HR MIN TEMP:  64; 6HR MAX TEMP:  68;

MUNISING         N/A     68  64  87 S8        29.96R
6HR MIN TEMP:  67; 6HR MAX TEMP:  71;

$$
MIZ004>006-011>014-085-251300-
CENTRAL UPPER MICHIGAN

CITY           SKY/WX    TMP DP  RH WIND       PRES   REMARKS
MANISTIQUE       N/A     65  59  81 MISG        N/A
MENOMINEE      CLEAR     62  61  96 CALM      29.99R FOG
6HR MIN TEMP:  62; 6HR MAX TEMP:  71;

SAWYER-GWINN   CLEAR     63  61  94 S7        29.98R
$$
MIZ001>003-009>011-084-251300-
WESTERN UPPER MICHIGAN

CITY           SKY/WX    TMP DP  RH WIND       PRES   REMARKS
IRON MOUNTAIN  CLEAR     64  60  87 SE3       29.97R
6HR MIN TEMP:  64; 6HR MAX TEMP:  67;

HOUGHTON       CLEAR     68  61  78 W6        29.92R
6HR MIN TEMP:  67; 6HR MAX TEMP:  73;

COPPER HARBOR    N/A     70  61  73 W5        29.89R
6HR MIN TEMP:  65; 6HR MAX TEMP:  75;

IRONWOOD       CLOUDY    66  64  93 W5        29.96R
6HR MIN TEMP:  66; 6HR MAX TEMP:  73; 6HR PCP: TRACE;

$$

ABBREVIATIONS USED IN REMARKS
   TC - TEMPERATURE IN CELSIUS
  WCI - WIND CHILL INDEX
   HX - HEAT INDEX
  VSB - VISIBILITY




USA.gov is the U.S. government's official web portal to all federal, state and local government web resources and services.